When you browse on this site, cookies collect data to enhance your experience and personalize the content and advertising you see.
Visit our Privacy Policy to learn more. By continuing to use the site, you agree to this use of cookies and data.
  • In Hungary
  • List of Countries
  • For 7 days
  • Water Temperature
  • Satellite Maps
  • Weather Map
  • News
  • Weather Widgets
  • user-avatar
    Login

    Hourly Weather Dharan Bazar

    Today, 20 February, Wednesday

    Time Temperature Precipitation Wind Pressure Humidity
    00:00 +20°C° 0 mm 1 mps 755 mmHg 56%
    01:00 +20°C° 0 mm 1 mps 755 mmHg 57%
    02:00 +20°C° 0 mm 1 mps 755 mmHg 58%
    03:00 +18°C° 0 mm 2 mps 756 mmHg 59%
    04:00 +18°C° 0 mm 2 mps 756 mmHg 60%
    05:00 +17°C° 0 mm 2 mps 756 mmHg 60%
    06:00 +18°C° 0 mm 1 mps 755 mmHg 63%
    07:00 +18°C° 0 mm 2 mps 756 mmHg 59%
    08:00 +20°C° 0 mm 2 mps 756 mmHg 55%
    09:00 +21°C° 0 mm 2 mps 756 mmHg 51%
    10:00 +24°C° 0 mm 2 mps 756 mmHg 47%
    11:00 +26°C° 0 mm 2 mps 756 mmHg 44%
    12:00 +27°C° 0 mm 2 mps 756 mmHg 42%
    13:00 +28°C° 0 mm 3 mps 756 mmHg 38%
    14:00 +29°C° 0 mm 4 mps 756 mmHg 34%
    15:00 +30°C° 0 mm 5 mps 755 mmHg 30%
    16:00 +29°C° 0 mm 4 mps 755 mmHg 33%
    17:00 +27°C° 0 mm 3 mps 755 mmHg 37%
    18:00 +26°C° 0 mm 2 mps 755 mmHg 40%
    19:00 +25°C° 0 mm 2 mps 756 mmHg 43%
    20:00 +24°C° 0 mm 1 mps 757 mmHg 45%
    21:00 +23°C° 0 mm 1 mps 757 mmHg 48%
    22:00 +22°C° 0 mm 1 mps 757 mmHg 49%
    23:00 +22°C° 0 mm 1 mps 758 mmHg 51%

    Tomorrow, 21 February, Thursday

    Time Temperature Precipitation Wind Pressure Humidity
    00:00 +20°C° 0 mm 2 mps 758 mmHg 53%
    01:00 +19°C° 0 mm 2 mps 758 mmHg 56%
    02:00 +19°C° 0 mm 2 mps 757 mmHg 58%
    03:00 +18°C° 0 mm 2 mps 757 mmHg 61%
    04:00 +18°C° 0 mm 2 mps 757 mmHg 63%
    05:00 +18°C° 0 mm 2 mps 757 mmHg 65%
    06:00 +17°C° 0 mm 2 mps 757 mmHg 67%
    07:00 +19°C° 0 mm 3 mps 757 mmHg 64%
    08:00 +20°C° 0 mm 4 mps 758 mmHg 60%
    09:00 +22°C° 0 mm 4 mps 758 mmHg 57%
    10:00 +23°C° 0 mm 4 mps 758 mmHg 52%
    11:00 +26°C° 0 mm 4 mps 758 mmHg 48%
    12:00 +27°C° 0 mm 3 mps 758 mmHg 43%
    13:00 +28°C° 0 mm 3 mps 757 mmHg 40%
    14:00 +29°C° 0 mm 2 mps 756 mmHg 37%
    15:00 +30°C° 0 mm 1 mps 755 mmHg 35%
    16:00 +29°C° 0 mm 1 mps 755 mmHg 38%
    17:00 +28°C° 0 mm 1 mps 755 mmHg 41%
    18:00 +27°C° 0 mm 1 mps 755 mmHg 44%
    19:00 +26°C° 0 mm 1 mps 755 mmHg 46%
    20:00 +25°C° 0 mm 1 mps 755 mmHg 48%
    21:00 +24°C° 0 mm 1 mps 756 mmHg 50%
    22:00 +23°C° 0 mm 1 mps 756 mmHg 51%
    23:00 +23°C° 0 mm 2 mps 755 mmHg 53%

    Day after tomorrow, 22 February, Friday

    Time Temperature Precipitation Wind Pressure Humidity
    00:00 +21°C° 0 mm 2 mps 755 mmHg 54%
    01:00 +21°C° 0 mm 2 mps 754 mmHg 56%
    02:00 +20°C° 0 mm 2 mps 754 mmHg 58%
    03:00 +20°C° 0 mm 2 mps 753 mmHg 60%
    04:00 +20°C° 0 mm 2 mps 754 mmHg 62%
    05:00 +21°C° 0 mm 1 mps 754 mmHg 63%
    06:00 +21°C° 0 mm 1 mps 754 mmHg 64%
    07:00 +21°C° 0 mm 2 mps 754 mmHg 60%
    08:00 +23°C° 0 mm 2 mps 755 mmHg 57%
    09:00 +25°C° 0 mm 3 mps 755 mmHg 53%
    10:00 +26°C° 0 mm 2 mps 755 mmHg 48%
    11:00 +28°C° 0 mm 2 mps 754 mmHg 44%
    12:00 +29°C° 0 mm 2 mps 754 mmHg 39%
    13:00 +31°C° 0 mm 2 mps 753 mmHg 36%
    14:00 +33°C° 0 mm 3 mps 752 mmHg 32%
    15:00 +34°C° 0 mm 4 mps 751 mmHg 29%
    16:00 +32°C° 0 mm 4 mps 751 mmHg 32%
    17:00 +30°C° 0 mm 3 mps 751 mmHg 35%
    18:00 +29°C° 0 mm 3 mps 751 mmHg 38%
    19:00 +28°C° 0 mm 3 mps 752 mmHg 41%
    20:00 +27°C° 0 mm 3 mps 753 mmHg 44%
    21:00 +25°C° 0 mm 3 mps 753 mmHg 47%
    22:00 +25°C° 0 mm 2 mps 753 mmHg 49%
    23:00 +24°C° 0 mm 2 mps 753 mmHg 51%

    23 February, Saturday

    Time Temperature Precipitation Wind Pressure Humidity
    00:00 +23°C° 0 mm 2 mps 753 mmHg 52%
    01:00 +23°C° 0 mm 1 mps 752 mmHg 53%
    02:00 +22°C° 0 mm 1 mps 752 mmHg 54%
    03:00 +21°C° 0 mm 1 mps 751 mmHg 54%
    04:00 +21°C° 0 mm 1 mps 751 mmHg 54%
    05:00 +20°C° 0 mm 1 mps 751 mmHg 54%
    06:00 +20°C° 0 mm 1 mps 751 mmHg 54%
    07:00 +20°C° 0 mm 2 mps 752 mmHg 52%
    08:00 +23°C° 0 mm 2 mps 752 mmHg 51%
    09:00 +24°C° 0 mm 3 mps 753 mmHg 50%
    10:00 +26°C° 0 mm 3 mps 753 mmHg 44%
    11:00 +28°C° 0 mm 2 mps 752 mmHg 38%
    12:00 +30°C° 0 mm 2 mps 752 mmHg 32%
    13:00 +31°C° 0 mm 3 mps 751 mmHg 28%
    14:00 +33°C° 0 mm 4 mps 750 mmHg 24%
    15:00 +34°C° 0 mm 5 mps 750 mmHg 20%
    16:00 +32°C° 0 mm 5 mps 750 mmHg 23%
    17:00 +30°C° 0 mm 4 mps 750 mmHg 25%
    18:00 +28°C° 0 mm 4 mps 750 mmHg 28%
    19:00 +27°C° 0 mm 4 mps 751 mmHg 32%
    20:00 +25°C° 0 mm 3 mps 752 mmHg 35%
    21:00 +24°C° 0 mm 3 mps 752 mmHg 39%
    22:00 +22°C° 0 mm 3 mps 752 mmHg 42%
    23:00 +21°C° 0 mm 2 mps 752 mmHg 45%

    24 February, Sunday

    Time Temperature Precipitation Wind Pressure Humidity
    00:00 +21°C° 0 mm 2 mps 752 mmHg 48%
    01:00 +20°C° 0 mm 2 mps 752 mmHg 49%
    02:00 +20°C° 0 mm 1 mps 751 mmHg 51%
    03:00 +20°C° 0 mm 1 mps 751 mmHg 52%
    04:00 +20°C° 0 mm 1 mps 751 mmHg 52%
    05:00 +20°C° 0 mm 1 mps 751 mmHg 51%
    06:00 +19°C° 0 mm 1 mps 751 mmHg 50%
    07:00 +20°C° 0 mm 2 mps 752 mmHg 47%
    08:00 +23°C° 0 mm 2 mps 753 mmHg 43%
    09:00 +24°C° 0 mm 3 mps 753 mmHg 40%
    10:00 +26°C° 0 mm 3 mps 753 mmHg 38%
    11:00 +28°C° 0 mm 3 mps 753 mmHg 36%
    12:00 +29°C° 0 mm 3 mps 752 mmHg 34%
    13:00 +30°C° 0 mm 3 mps 752 mmHg 32%
    14:00 +30°C° 0 mm 3 mps 751 mmHg 30%
    15:00 +31°C° 0 mm 2 mps 750 mmHg 27%
    16:00 +29°C° 0 mm 2 mps 750 mmHg 30%
    17:00 +28°C° 0 mm 2 mps 751 mmHg 34%
    18:00 +27°C° 0 mm 2 mps 751 mmHg 37%
    19:00 +26°C° 0 mm 2 mps 751 mmHg 40%
    20:00 +25°C° 0 mm 2 mps 752 mmHg 42%
    21:00 +24°C° 0 mm 2 mps 753 mmHg 45%
    22:00 +24°C° 0 mm 2 mps 753 mmHg 49%
    23:00 +23°C° 0 mm 2 mps 753 mmHg 52%

    25 February, Monday

    Time Temperature Precipitation Wind Pressure Humidity
    00:00 +22°C° 0 mm 1 mps 753 mmHg 56%
    01:00 +22°C° 0 mm 1 mps 752 mmHg 55%
    02:00 +22°C° 0 mm 1 mps 752 mmHg 54%
    03:00 +21°C° 0 mm 1 mps 752 mmHg 54%
    04:00 +21°C° 0 mm 1 mps 752 mmHg 52%
    05:00 +21°C° 0 mm 1 mps 752 mmHg 51%
    06:00 +21°C° 0 mm 1 mps 753 mmHg 50%
    07:00 +21°C° 0 mm 2 mps 753 mmHg 46%
    08:00 +23°C° 0 mm 2 mps 753 mmHg 42%
    09:00 +24°C° 0 mm 3 mps 754 mmHg 38%
    10:00 +25°C° 0.2 mm 3 mps 754 mmHg 41%
    11:00 +26°C° 0.2 mm 3 mps 753 mmHg 44%
    12:00 +27°C° 0.2 mm 3 mps 753 mmHg 47%
    13:00 +27°C° 0.3 mm 3 mps 752 mmHg 48%
    14:00 +27°C° 0.3 mm 3 mps 752 mmHg 49%
    15:00 +27°C° 0.3 mm 3 mps 751 mmHg 49%
    16:00 +25°C° 1.1 mm 3 mps 751 mmHg 55%
    17:00 +24°C° 1.1 mm 2 mps 751 mmHg 60%
    18:00 +23°C° 1.1 mm 2 mps 752 mmHg 66%
    19:00 +21°C° 0.3 mm 2 mps 752 mmHg 69%
    20:00 +20°C° 0.3 mm 2 mps 752 mmHg 72%
    21:00 +20°C° 0.3 mm 2 mps 753 mmHg 75%
    22:00 +20°C° 0.6 mm 2 mps 753 mmHg 75%
    23:00 +19°C° 0.6 mm 2 mps 754 mmHg 75%
    Show more